This demonstration page uses our WeatherBlox Daily Observations layout. Learn more.

Left ArrowRight Arrow

39.29038, -76.61219

Hourly Observations for August 12, 2020

Temp ( °F °C ) Dew Point ( °F °C ) Humidity (%) Winds ( mph kmh ) Pressure ( in mb ) Visibility ( mi km ) Precip ( " mm )
12:54 am 00:54 Partly Cloudy 81 27.2 74 23.3 79 79 S 5 7 29.95 1014 10 16 0.00 0.00
1:54 am 01:54 Mostly Cloudy 80 26.7 74 23.3 82 82 SSW 3 6 29.96 1015 10 16 0.00 0.00
2:54 am 02:54 Mostly Cloudy 80 26.7 73 22.8 79 79 SW 3 6 29.96 1014 10 16 0.00 0.00
3:54 am 03:54 Mostly Cloudy 80 26.7 73 22.8 79 79 Calm 29.96 1015 10 16 0.00 0.00
4:54 am 04:54 Mostly Cloudy 79 26.1 74 23.3 85 85 Calm 29.96 1015 10 16 0.00 0.00
5:54 am 05:54 Mostly Cloudy 79 26.1 74 23.3 85 85 W 5 7 29.98 1015 10 16 0.00 0.00
6:54 am 06:54 Mostly Cloudy 79 26.1 72 22.2 79 79 W 6 9 30.00 1016 10 16 0.00 0.00
7:54 am 07:54 Mostly Cloudy 80 26.7 72 22.2 76 76 W 5 7 30.01 1016 10 16 0.00 0.00
8:54 am 08:54 Mostly Cloudy 82 27.8 72 22.2 72 72 NNW 5 7 30.01 1016 10 16 0.00 0.00
9:54 am 09:54 Mostly Cloudy 83 28.3 73 22.8 72 72 NNW 3 6 30.01 1016 10 16 0.00 0.00
10:54 am 10:54 Partly Cloudy 86 30 74 23.3 67 67 VRB 3 6 30.02 1017 10 16 0.00 0.00
11:54 am 11:54 Mostly Cloudy 87 30.6 74 23.3 65 65 SE 3 6 30.02 1017 10 16 0.00 0.00
12:54 pm 12:54 Mostly Cloudy 89 31.7 75 23.9 63 63 VRB 5 7 30.00 1016 10 16 0.00 0.00
1:45 pm 13:45 Mostly Cloudy with Thunderstorms 93 33.9 75 23.9 56 56 VRB 5 7 29.98 1015 10 16 0.00 0.00
1:54 pm 13:54 Mostly Cloudy with Thunderstorms 93 33.9 73 22.8 52 52 SW 6 9 29.99 1016 10 16 0.00 0.00
2:52 pm 14:52 Mostly Cloudy 91 33 73 23 56 56 N 6 9 29.97 1015 10 16 0.00 0.00
2:54 pm 14:54 Mostly Cloudy 91 32.8 73 22.8 56 56 NNE 7 11 29.97 1015 10 16 0.00 0.00
3:54 pm 15:54 Mostly Cloudy 89 31.7 72 22.2 57 57 NNW 5 7 29.97 1015 10 16 0.00 0.00
4:33 pm 16:33 Mostly Cloudy with Thunderstorms 90 32.2 72 22.2 56 56 ENE 5 7 29.97 1015 10 16 0.00 0.00
4:54 pm 16:54 Mostly Cloudy with Thunderstorms 81 27.2 68 20 65 65 S 15 24 29.97 1015 10 16 0.00 0.00
4:57 pm 16:57 Mostly Cloudy with Thunderstorms 80 26.7 69 20.6 69 69 SSE 15 24 29.97 1015 7 11 0.00 0.00
5:00 pm 17:00 Cloudy with Thunderstorms 78 25.6 69 20.6 74 74 SSE 15 24 29.97 1015 2 2 0.05 1.27
5:10 pm 17:10 Cloudy with Strong Thunderstorms 75 23.9 69 20.6 82 82 S 23 37 29.97 1015 0 0 0.30 7.62
5:14 pm 17:14 Cloudy with Strong Thunderstorms 75 23.9 70 21.1 84 84 SSW 28 44 29.98 1015 0 0 0.59 14.99
5:19 pm 17:19 Cloudy with Strong Thunderstorms 75 23.9 70 21.1 84 84 SW 21 33 29.97 1015 1 2 0.95 24.13
5:54 pm 17:54 Mostly Cloudy with Strong Thunderstorms 73 22.8 68 20 84 84 SSW 8 13 30.02 1017 0 0 2.91 73.91
6:06 pm 18:06 Cloudy with Strong Thunderstorms 72 22.2 70 21.1 94 94 N 9 15 30.05 1018 1 2 0.31 7.87
6:16 pm 18:16 Cloudy with Thunderstorms 73 22.8 70 21.1 90 90 NNE 9 15 30.05 1018 2 3 0.40 10.16
6:27 pm 18:27 Cloudy with Thunderstorms 73 22.8 70 21.1 90 90 N 6 9 30.03 1017 3 5 0.43 10.92
6:54 pm 18:54 Mostly Cloudy with Thunderstorms 73 22.8 71 21.7 94 94 Calm 30.04 1017 7 11 0.46 11.68
7:09 pm 19:09 Mostly Cloudy with Light Rain 73 22.8 70 21.1 90 90 W 6 9 30.02 1017 5 8 0.01 0.25
7:54 pm 19:54 Mostly Cloudy with Light Rain 73 22.8 71 21.7 94 94 Calm 30.03 1017 7 11 0.09 2.29
8:54 pm 20:54 Mostly Cloudy with Light Rain 75 23.9 72 22.2 90 90 S 7 11 30.01 1016 10 16 0.05 1.27
9:54 pm 21:54 Cloudy 75 23.9 72 22.2 90 90 N 5 7 30.05 1018 10 16 0.00 0.00
10:54 pm 22:54 Mostly Cloudy 75 23.9 72 22.2 90 90 SE 5 7 30.04 1017 10 16 0.00 0.00
11:54 pm 23:54 Mostly Cloudy 74 23.3 72 22.2 94 94 NW 3 6 30.06 1018 10 16 0.00 0.00

Powered by AerisWeather